Weather observations for the past three days for
Atlanta Regional Airport-Falcon Field
Imperial (Metric)
Date Time (edt) Wind (mph) Vis. (mi.) Weather Sky Cond. Temperature (ºF) Relative Humidity Wind Chill (°F) Heat Index (°F) Pressure Precipitation (in)
Air Dwpt 6 hour altimeter (in) sea level (mb) 1 hr 3 hr 6 hr
Max. Min.
22 10:53 Vrbl 3 10.00 Fair CLR 89.1 70 53% 94 30.15 1020.0
22 09:53 Vrbl 3 10.00 Fair CLR 84 69.1 61% 88 30.15 1020.1
22 08:53 Calm 10.00 Fair CLR 79 66.9 67% 81 30.16 1020.4
22 07:53 Calm 10.00 Fair CLR 73 66 73 68 79% 30.15 1020.3
22 06:53 Calm 7.00 Fair CLR 68 64 87% 30.15 1020.3
22 05:53 Calm 8.00 Fair CLR 68 64 87% 30.14 1019.9
22 04:53 Calm 8.00 Fair CLR 68 64 87% 30.13 1019.5
22 03:53 Calm 9.00 Fair CLR 68 64 87% 30.13 1019.7
22 02:53 Calm 9.00 Fair CLR 69.1 64.9 87% 30.14 1019.9
22 01:53 Calm 10.00 Fair CLR 70 64.9 91.9 70 84% 30.15 1020.2
22 00:53 Calm 10.00 Fair CLR 71.1 64 79% 30.16 1020.4
21 22:53 Calm 10.00 Fair CLR 73.9 64.9 74% 30.16 1020.4
21 21:53 Calm 10.00 Fair CLR 78.1 64.9 64% 80 30.14 1019.9
21 20:53 Calm 10.00 Fair CLR 84 64.9 53% 86 30.12 1019.3
21 19:53 Vrbl 3 10.00 Fair CLR 91.9 61 95 90 36% 92 30.12 1019.2
21 18:53 NE 8 10.00 A Few Clouds FEW065 93.9 60.1 32% 94 30.12 1019.3
21 17:53 E 9 10.00 Fair CLR 93.9 61 33% 94 30.13 1019.6
21 16:53 E 8 10.00 Partly Cloudy SCT065 95 61 32% 95 30.15 1020.3
21 15:53 E 10 G 18 10.00 A Few Clouds FEW060 93 61 34% 93 30.17 1020.8
21 14:53 Vrbl 7 10.00 A Few Clouds FEW060 91.9 61 36% 92 30.19 1021.5
21 13:53 NE 10 10.00 A Few Clouds FEW055 91.9 62.1 91.9 70 37% 93 30.21 1022.1
21 12:53 Vrbl 6 10.00 Partly Cloudy SCT050 90 62.1 39% 90 30.23 1023.0
21 11:53 N 9 10.00 A Few Clouds FEW049 87.1 62.1 43% 88 30.26 1023.8
21 10:53 Vrbl 5 10.00 Fair CLR 84.9 66 53% 87 30.26 1024.0
21 09:53 Calm 10.00 Fair CLR 82 66 58% 84 30.27 1024.4
21 08:53 Calm 10.00 Fair CLR 77 64.9 66% 79 30.28 1024.4
21 07:53 Calm 10.00 Fair CLR 70 64.9 70 64 84% 30.27 1024.4
21 06:53 Calm 7.00 Fair CLR 64.9 61 87% 30.26 1024.0
21 05:53 Calm 8.00 Fair CLR 64.9 61 87% 30.25 1023.7
21 04:53 Calm 8.00 Fair CLR 64.9 61 87% 30.24 1023.3
21 03:53 Calm 9.00 Fair CLR 66 62.1 87% 30.23 1023.0
21 02:53 Calm 10.00 Fair CLR 66.9 62.1 84% 30.24 1023.2
21 01:53 Calm 10.00 Fair CLR 68 63 89.1 68 84% 30.24 1023.2
21 00:53 Calm 10.00 Fair CLR 70 63 79% 30.25 1023.5
20 23:53 Calm 10.00 Fair CLR 72 63 73% 30.24 1023.4
20 22:53 Calm 10.00 Fair CLR 73.9 64 71% 30.24 1023.4
20 21:53 Calm 10.00 Fair CLR 75.9 63 64% 78 30.24 1023.1
20 20:53 Calm 10.00 Fair CLR 86 60.1 42% 86 30.22 1022.6
20 19:53 E 5 10.00 Mostly Cloudy BKN070 89.1 59 93 88 36% 88 30.22 1022.5
20 18:53 E 8 10.00 A Few Clouds FEW065 90 59 35% 89 30.22 1022.6
20 17:53 Vrbl 5 10.00 Partly Cloudy SCT070 93 59 32% 92 30.23 1022.8
20 16:53 E 9 10.00 Partly Cloudy SCT065 91.9 60.1 34% 92 30.24 1023.2
20 15:53 E 14 G 21 10.00 Partly Cloudy SCT060 91.9 60.1 34% 92 30.25 1023.6
20 14:53 E 6 G 23 10.00 A Few Clouds FEW060 91 60.1 35% 91 30.27 1024.2
20 13:53 E 14 G 22 10.00 Mostly Cloudy BKN055 90 62.1 91 75.9 39% 90 30.29 1025.0
20 12:53 E 9 10.00 A Few Clouds FEW055 89.1 62.1 41% 89 30.31 1025.4
20 11:53 SE 13 G 24 10.00 Mostly Cloudy BKN044 86 63 46% 87 30.32 1026.0
20 10:53 E 10 G 17 10.00 Fair CLR 84.9 64 50% 86 30.33 1026.1
20 09:53 E 6 G 16 10.00 Fair CLR 82 64.9 56% 84 30.32 1026.0
20 08:53 Vrbl 7 10.00 Fair CLR 79 64.9 62% 81 30.32 1026.0
20 07:53 Vrbl 3 10.00 Fair CLR 75 64 75 68 69% 77 30.3 1025.5
20 06:53 Calm 10.00 A Few Clouds FEW060 73 64 74% 30.29 1024.9
20 05:53 Calm 10.00 Overcast OVC060 73 64 74% 30.27 1024.3
20 04:53 Calm 10.00 Fair CLR 68 64 87% 30.26 1024.0
20 03:53 Calm 10.00 Fair CLR 70 64 82% 30.25 1023.5
20 02:53 Calm 10.00 Fair CLR 71.1 64 79% 30.24 1023.4
20 01:53 Calm 10.00 Fair CLR 73.9 64 87.1 73.9 71% 30.24 1023.3
20 00:53 E 6 10.00 Fair CLR 78.1 63 60% 80 30.25 1023.4
19 23:53 E 7 10.00 A Few Clouds FEW055 FEW070 81 63 54% 82 30.24 1023.2
19 22:53 E 7 10.00 A Few Clouds FEW060 82 62.1 51% 83 30.23 1022.9
19 20:53 Vrbl 3 10.00 Fair CLR 84.9 61 45% 85 30.21 1022.4
19 19:53 Vrbl 7 10.00 Fair CLR 87.1 60.1 91 86 40% 87 30.2 1021.9
19 18:53 E 9 G 22 10.00 Partly Cloudy SCT070 89.1 60.1 38% 89 30.2 1021.7
19 17:53 E 9 G 17 10.00 Mostly Cloudy BKN065 90 59 35% 89 30.2 1021.6
19 16:53 E 8 G 17 10.00 A Few Clouds FEW060 89.1 59 36% 88 30.2 1022.0
19 15:53 E 12 G 22 10.00 A Few Clouds FEW055 89.1 60.1 38% 89 30.22 1022.3
19 14:53 E 10 G 20 10.00 Mostly Cloudy BKN050 87.1 60.1 40% 87 30.23 1023.0
19 13:53 E 10 G 23 10.00 Partly Cloudy SCT049 88 61 88 73 40% 88 30.25 1023.6
19 12:53 NE 8 10.00 Partly Cloudy SCT040 84 63 49% 85 30.26 1023.9
19 11:53 E 12 G 21 10.00 Mostly Cloudy SCT035 BKN045 82.9 63 51% 84 30.27 1024.2
Date Time (edt) Wind (mph) Vis. (mi.) Weather Sky Cond. Air Dwpt Max. Min. Relative Humidity Wind Chill (°F) Heat Index (°F) altimeter (in) sea level (mb) 1 hr 3 hr 6 hr
6 hour
Temperature (ºF) Pressure Precipitation (in)